Wichita Jabara, KS

5:58 AM CDT on June 23, 2017 (GMT -0500)
Col Jabara

Weather History for KAAO - November, 2012

Change the Weather History Date:

Tuesday, November 6, 2012

  Actual Average (KIAB) Record (KIAB)
Temperature  
Mean Temperature 51 °F -  
Max Temperature 66 °F 57 °F 78 °F (2004)
Min Temperature 36 °F 38 °F 28 °F (2003)
Degree Days  
Heating Degree Days 14    
Growing Degree Days 1 (Base 50)    
Moisture  
Dew Point 31 °F    
Average Humidity 56    
Maximum Humidity 93    
Minimum Humidity 26    
Precipitation  
Precipitation 0.00 in - - ()
Sea Level Pressure  
Sea Level Pressure 30.11 in    
Wind  
Wind Speed 7 mph (WNW)    
Max Wind Speed 20 mph    
Max Gust Speed 26 mph    
Visibility 10 miles    
Events      
Averages and records for this station are not official NWS values.
T = Trace of Precipitation, MM = Missing Value Source: NWS Daily Summary

Daily Weather History Graph

Daily Weather History Graph

Search for Another Location

Airport or City:

Trip Planner

Search our weather history database for the weather conditions in past years. The results will help you decide how hot, cold, wet, or windy it might be!

Date:

Astronomy

Nov. 06, 2012 Rise Set
Actual Time 6:59 AM CST 5:24 PM CST
Civil Twilight 6:32 AM CST 5:52 PM CST
Nautical Twilight 6:01 AM CST 6:23 PM CST
Astronomical Twilight 5:30 AM CST 6:54 PM CST
Moon No Moon Rise 12:53 PM CST (11/6)
Length of Visible Light 11h 19m
Length of Day
10h 24m
Waning Gibbous, 53% of the Moon is Illuminated
Nov 6
Waning Gibbous
Nov 6
Last Quarter
Nov 13
New
Nov 20
First Quarter
Nov 28
Full

Hourly Weather History & Observations

Time (CST) Temp. Windchill Dew Point Humidity Pressure Visibility Wind Dir Wind Speed Gust Speed Precip Events Conditions
12:54 AM 37.9 °F - 35.1 °F 89% 30.11 in 10.0 mi Calm Calm - N/A   Overcast
1:54 AM 37.0 °F 34.5 °F 34.0 °F 89% 30.12 in 10.0 mi WSW 3.5 mph - N/A   Scattered Clouds
2:54 AM 39.9 °F 35.8 °F 37.0 °F 89% 30.11 in 10.0 mi SW 5.8 mph - N/A   Overcast
3:54 AM 39.0 °F 35.7 °F 35.1 °F 86% 30.10 in 10.0 mi SW 4.6 mph - N/A   Scattered Clouds
4:54 AM 36.0 °F 32.1 °F 34.0 °F 93% 30.09 in 10.0 mi SSW 4.6 mph - N/A   Clear
5:54 AM 39.0 °F 33.4 °F 36.0 °F 89% 30.10 in 10.0 mi SSW 8.1 mph - N/A   Overcast
6:54 AM 39.0 °F 33.4 °F 35.1 °F 86% 30.10 in 10.0 mi SW 8.1 mph - N/A   Partly Cloudy
7:54 AM 43.0 °F - 36.0 °F 76% 30.12 in 10.0 mi Calm Calm - N/A   Clear
8:54 AM 46.9 °F - 36.0 °F 66% 30.10 in 10.0 mi SW 9.2 mph - N/A   Clear
9:54 AM 52.0 °F - 36.0 °F 54% 30.12 in 10.0 mi West 12.7 mph - N/A   Clear
10:54 AM 55.9 °F - 37.0 °F 49% 30.13 in 10.0 mi NW 15.0 mph - N/A   Partly Cloudy
11:54 AM 61.0 °F - 37.0 °F 41% 30.12 in 10.0 mi NNW 15.0 mph 23.0 mph N/A   Clear
12:54 PM 64.0 °F - 32.0 °F 30% 30.09 in 10.0 mi North 19.6 mph - N/A   Clear
1:54 PM 66.0 °F - 30.9 °F 27% 30.07 in 10.0 mi North 18.4 mph 26.5 mph N/A   Clear
2:54 PM 64.0 °F - 28.9 °F 27% 30.08 in 10.0 mi North 17.3 mph - N/A   Clear
3:54 PM 64.0 °F - 28.9 °F 27% 30.08 in 10.0 mi NNW 13.8 mph 23.0 mph N/A   Clear
4:54 PM 62.1 °F - 27.0 °F 26% 30.09 in 10.0 mi NNW 13.8 mph - N/A   Clear
5:54 PM 54.0 °F - 27.0 °F 35% 30.11 in 10.0 mi NW 8.1 mph - N/A   Clear
6:54 PM 52.0 °F - 25.0 °F 35% 30.13 in 10.0 mi NW 8.1 mph - N/A   Clear
7:54 PM 48.0 °F - 25.0 °F 41% 30.14 in 10.0 mi NW 8.1 mph - N/A   Clear
8:54 PM 48.9 °F - 24.1 °F 38% 30.15 in 10.0 mi WNW 8.1 mph - N/A   Clear
9:54 PM 46.9 °F - 25.0 °F 42% 30.15 in 10.0 mi WNW 6.9 mph - N/A   Clear
10:54 PM 42.1 °F 37.7 °F 25.0 °F 51% 30.15 in 10.0 mi NNW 6.9 mph - N/A   Clear
11:54 PM 43.0 °F 39.5 °F 24.1 °F 47% 30.15 in 10.0 mi WNW 5.8 mph - N/A   Clear